Regional Weather Roundup
Issued by NWS Nashville, TN

Home | Current Version | Previous Version | Text Only | Print | Product List | Glossary On
Versions: 1 2 3 4 5 6 7 8 9 10 11 12 13 14 15 16 17 18 19 20 21 22 23 24 25 26 27
000
ASUS44 KOHX 230010
RWROHX
MIDDLE TENNESSEE HOURLY WEATHER ROUNDUP
NATIONAL WEATHER SERVICE NASHVILLE TN
600 PM CST THU FEB 22 2018

NOTE: "FAIR" INDICATES FEW OR NO CLOUDS BELOW 12,000 FEET WITH
NO SIGNIFICANT WEATHER AND/OR OBSTRUCTIONS TO VISIBILITY.

* THESE REPORTS ARE NOT UNDER NWS QUALITY CONTROL AND MAY NOT
  REPORT WEATHER SUCH AS PRECIPITATION AND FOG.


TNZ005>011-023>034-057-059-062>066-078-080-230100
...NORTHERN MIDDLE TENNESSEE...

CITY           SKY/WX    TMP DP  RH WIND       PRES   REMARKS
CLARKSVILLE    CLOUDY    57  53  86 CALM      30.31R
CROSSVILLE       N/A     62  60  93 CALM      30.36R
GALLATIN       CLOUDY    61  59  94 CALM      30.33F
NASHVILLE      FOG       59  58  96 CALM      30.31F VSB 1/2
PORTLAND       CLOUDY    59  57  94 SE3       30.30F
SMYRNA         FOG       58  58 100 CALM      30.32F VSB 1/4
SPARTA         PTCLDY    63  61  94 CALM      30.33R
SPRINGFIELD    FOG       57  57 100 CALM      30.29S VSB 1/4
WEST NASHVILLE PTCLDY    57  57 100 CALM      30.29F
$$
TNZ056-058-060-061-075>077-079-093>097-230100
...SOUTHERN MIDDLE TENNESSEE...

CITY           SKY/WX    TMP DP  RH WIND       PRES   REMARKS
COLUMBIA       CLEAR     63  63 100 CALM      30.27F
FAYETTEVILLE   CLEAR     68  61  77 CALM      30.30F
MCMINNVILLE    PTCLDY    64  61  88 CALM      30.33R
PULASKI        CLEAR     64  63  94 CALM      30.29S
SHELBYVILLE    CLEAR     64  61  88 SE3       30.31F
TULLAHOMA      CLEAR     66  59  77 CALM      30.32S
WINCHESTER     CLEAR     66  61  82 CALM      30.33R
$$


...KEY TO REMARKS...
VSB - VISIBILITY IN MILES
WCI - WIND CHILL INDEX
HX  - HEAT INDEX





USA.gov is the U.S. government's official web portal to all federal, state and local government web resources and services.